Time,TemperatureF,DewpointF,PressureIn,WindDirection,WindDirectionDegrees,WindSpeedMPH,WindSpeedGustMPH,Humidity,HourlyPrecipIn,Conditions,Clouds,dailyrainin,SoftwareType,DateUTC
2013-11-20 00:00:00,29.0,22.0,30.34,NE,42,0.0,4.0,76,0.00,,,-99.99,,2013-11-20 05:00:00,
2013-11-20 00:43:00,29.0,22.0,30.34,NE,42,0.0,4.0,76,0.00,,,-99.99,,2013-11-20 05:43:00,
2013-11-20 00:53:00,29.0,22.0,30.34,NE,42,0.0,4.0,76,0.00,,,-99.99,,2013-11-20 05:53:00,
2013-11-20 01:00:00,31.0,22.0,30.34,NNW,341,6.0,9.0,69,0.00,,,-99.99,,2013-11-20 06:00:00,
2013-11-20 01:42:00,31.0,22.0,30.34,NNW,341,6.0,9.0,69,0.00,,,-99.99,,2013-11-20 06:42:00,
2013-11-20 01:52:00,31.0,22.0,30.34,NNW,341,6.0,9.0,69,0.00,,,-99.99,,2013-11-20 06:52:00,
2013-11-20 02:00:00,28.0,22.0,30.36,North,354,5.0,8.0,80,0.00,,,-99.99,,2013-11-20 07:00:00,
2013-11-20 02:42:00,28.0,22.0,30.36,North,354,5.0,8.0,80,0.00,,,-99.99,,2013-11-20 07:42:00,
2013-11-20 02:52:00,28.0,22.0,30.36,North,354,5.0,8.0,80,0.00,,,-99.99,,2013-11-20 07:52:00,
2013-11-20 03:00:00,29.0,21.0,30.38,NW,324,0.0,7.0,75,0.00,,,-99.99,,2013-11-20 08:00:00,
2013-11-20 03:42:00,29.0,21.0,30.38,NW,324,0.0,7.0,75,0.00,,,-99.99,,2013-11-20 08:42:00,
2013-11-20 03:52:00,29.0,21.0,30.38,NW,324,0.0,7.0,75,0.00,,,-99.99,,2013-11-20 08:52:00,
2013-11-20 04:00:00,28.0,21.0,30.40,North,350,3.0,6.0,75,0.00,,,-99.99,,2013-11-20 09:00:00,
2013-11-20 04:44:00,28.0,21.0,30.40,North,350,3.0,6.0,75,0.00,,,-99.99,,2013-11-20 09:44:00,
2013-11-20 04:54:00,28.0,21.0,30.40,North,350,3.0,6.0,75,0.00,,,-99.99,,2013-11-20 09:54:00,
2013-11-20 05:00:00,26.0,20.0,30.42,NW,320,0.0,8.0,81,0.00,,,-99.99,,2013-11-20 10:00:00,
2013-11-20 05:43:00,26.0,20.0,30.42,NW,320,0.0,8.0,81,0.00,,,-99.99,,2013-11-20 10:43:00,
2013-11-20 05:53:00,26.0,20.0,30.42,NW,320,0.0,8.0,81,0.00,,,-99.99,,2013-11-20 10:53:00,
2013-11-20 06:00:00,24.0,20.0,30.45,North,351,0.0,2.0,87,0.00,,,-99.99,,2013-11-20 11:00:00,
2013-11-20 06:43:00,24.0,20.0,30.45,North,351,0.0,2.0,87,0.00,,,-99.99,,2013-11-20 11:43:00,
2013-11-20 06:52:00,24.0,20.0,30.45,North,351,0.0,2.0,87,0.00,,,-99.99,,2013-11-20 11:52:00,
2013-11-20 07:00:00,24.0,20.0,30.48,North,0,2.0,2.0,90,0.00,,,-99.99,,2013-11-20 12:00:00,
2013-11-20 07:42:00,24.0,20.0,30.48,North,0,2.0,2.0,90,0.00,,,-99.99,,2013-11-20 12:42:00,
2013-11-20 07:52:00,24.0,20.0,30.48,North,0,2.0,2.0,90,0.00,,,-99.99,,2013-11-20 12:52:00,
2013-11-20 08:00:00,29.0,21.0,30.49,North,3,2.0,7.0,76,0.00,,,-99.99,,2013-11-20 13:00:00,
2013-11-20 08:42:00,29.0,21.0,30.49,North,3,2.0,7.0,76,0.00,,,-99.99,,2013-11-20 13:42:00,
2013-11-20 08:52:00,29.0,21.0,30.49,North,3,2.0,7.0,76,0.00,,,-99.99,,2013-11-20 13:52:00,
2013-11-20 09:00:00,35.0,22.0,30.51,North,9,8.0,12.0,58,0.00,,,-99.99,,2013-11-20 14:00:00,
2013-11-20 09:42:00,35.0,22.0,30.51,North,9,8.0,12.0,58,0.00,,,-99.99,,2013-11-20 14:42:00,
2013-11-20 09:52:00,35.0,22.0,30.51,North,9,8.0,12.0,58,0.00,,,-99.99,,2013-11-20 14:52:00,
2013-11-20 10:00:00,39.0,23.0,30.53,NNE,31,3.0,15.0,52,0.00,,,-99.99,,2013-11-20 15:00:00,
2013-11-20 10:43:00,39.0,23.0,30.53,NNE,31,3.0,15.0,52,0.00,,,-99.99,,2013-11-20 15:43:00,
2013-11-20 10:54:00,39.0,23.0,30.53,NNE,31,3.0,15.0,52,0.00,,,-99.99,,2013-11-20 15:54:00,
2013-11-20 11:00:00,41.0,21.0,30.53,NE,53,5.0,14.0,43,0.00,,,-99.99,,2013-11-20 16:00:00,
2013-11-20 11:43:00,41.0,21.0,30.53,NE,53,5.0,14.0,43,0.00,,,-99.99,,2013-11-20 16:43:00,
2013-11-20 11:52:00,41.0,21.0,30.53,NE,53,5.0,14.0,43,0.00,,,-99.99,,2013-11-20 16:52:00,
2013-11-20 12:00:00,44.0,20.0,30.52,NNE,30,5.0,13.0,37,0.00,,,-99.99,,2013-11-20 17:00:00,
2013-11-20 12:42:00,44.0,20.0,30.52,NNE,30,5.0,13.0,37,0.00,,,-99.99,,2013-11-20 17:42:00,
2013-11-20 12:52:00,44.0,20.0,30.52,NNE,30,5.0,13.0,37,0.00,,,-99.99,,2013-11-20 17:52:00,
2013-11-20 13:00:00,45.0,17.0,30.52,East,92,0.0,8.0,31,0.00,,,-99.99,,2013-11-20 18:00:00,
2013-11-20 13:43:00,45.0,17.0,30.52,East,92,0.0,8.0,31,0.00,,,-99.99,,2013-11-20 18:43:00,
2013-11-20 13:52:00,45.0,17.0,30.52,East,92,0.0,8.0,31,0.00,,,-99.99,,2013-11-20 18:52:00,
2013-11-20 14:00:00,47.0,12.0,30.50,NE,50,4.0,10.0,24,0.00,,,-99.99,,2013-11-20 19:00:00,
2013-11-20 14:42:00,47.0,12.0,30.50,NE,50,4.0,10.0,24,0.00,,,-99.99,,2013-11-20 19:42:00,
2013-11-20 14:52:00,47.0,12.0,30.50,NE,50,4.0,10.0,24,0.00,,,-99.99,,2013-11-20 19:52:00,
2013-11-20 15:00:00,45.0,13.0,30.50,East,87,4.0,14.0,26,0.00,,,-99.99,,2013-11-20 20:00:00,
2013-11-20 15:42:00,45.0,13.0,30.50,East,87,4.0,14.0,26,0.00,,,-99.99,,2013-11-20 20:42:00,
2013-11-20 15:52:00,45.0,13.0,30.50,East,87,4.0,14.0,26,0.00,,,-99.99,,2013-11-20 20:52:00,
2013-11-20 16:00:00,43.0,14.0,30.51,ENE,70,3.0,12.0,30,0.00,,,-99.99,,2013-11-20 21:00:00,
2013-11-20 16:43:00,43.0,14.0,30.51,ENE,70,3.0,12.0,30,0.00,,,-99.99,,2013-11-20 21:43:00,
2013-11-20 16:53:00,43.0,14.0,30.51,ENE,70,3.0,12.0,30,0.00,,,-99.99,,2013-11-20 21:53:00,
2013-11-20 17:00:00,37.0,20.0,30.52,NE,47,0.0,6.0,50,0.00,,,-99.99,,2013-11-20 22:00:00,
2013-11-20 17:42:00,37.0,20.0,30.52,NE,47,0.0,6.0,50,0.00,,,-99.99,,2013-11-20 22:42:00,
2013-11-20 17:53:00,37.0,20.0,30.52,NE,47,0.0,6.0,50,0.00,,,-99.99,,2013-11-20 22:53:00,
2013-11-20 18:00:00,30.0,21.0,30.53,SW,225,0.0,-999.0,70,-99.99,,,-99.99,,2013-11-20 23:00:00,
2013-11-20 18:43:00,30.0,21.0,30.53,SW,225,0.0,-999.0,70,-99.99,,,-99.99,,2013-11-20 23:43:00,
2013-11-20 18:53:00,30.0,21.0,30.53,SW,225,0.0,-999.0,70,-99.99,,,-99.99,,2013-11-20 23:53:00,
2013-11-20 19:00:00,26.0,20.0,30.53,SW,224,0.0,0.0,79,0.00,,,-99.99,,2013-11-21 00:00:00,
2013-11-20 19:42:00,26.0,20.0,30.53,SW,224,0.0,0.0,79,0.00,,,-99.99,,2013-11-21 00:42:00,
2013-11-20 19:52:00,26.0,20.0,30.53,SW,224,0.0,0.0,79,0.00,,,-99.99,,2013-11-21 00:52:00,
2013-11-20 20:00:00,26.0,21.0,30.55,NNE,26,0.0,0.0,83,0.00,,,-99.99,,2013-11-21 01:00:00,
2013-11-20 20:42:00,26.0,21.0,30.55,NNE,26,0.0,0.0,83,0.00,,,-99.99,,2013-11-21 01:42:00,
2013-11-20 20:52:00,26.0,21.0,30.55,NNE,26,0.0,0.0,83,0.00,,,-99.99,,2013-11-21 01:52:00,
2013-11-20 21:00:00,26.0,21.0,30.55,NNE,23,0.0,0.0,84,0.00,,,-99.99,,2013-11-21 02:00:00,
2013-11-20 21:52:00,26.0,21.0,30.55,NNE,23,0.0,0.0,84,0.00,,,-99.99,,2013-11-21 02:52:00,
2013-11-20 22:00:00,26.0,21.0,30.56,North,0,0.0,0.0,87,0.00,,,-99.99,,2013-11-21 03:00:00,
2013-11-20 22:43:00,26.0,21.0,30.56,North,0,0.0,0.0,87,0.00,,,-99.99,,2013-11-21 03:43:00,
2013-11-20 22:54:00,26.0,21.0,30.56,North,0,0.0,0.0,87,0.00,,,-99.99,,2013-11-21 03:54:00,
2013-11-20 23:00:00,29.0,21.0,30.56,North,11,0.0,4.0,73,0.00,,,-99.99,,2013-11-21 04:00:00,
2013-11-20 23:43:00,29.0,21.0,30.56,North,11,0.0,4.0,73,0.00,,,-99.99,,2013-11-21 04:43:00,
2013-11-20 23:53:00,29.0,21.0,30.56,North,11,0.0,4.0,73,0.00,,,-99.99,,2013-11-21 04:53:00,